Location: *
(37.5724°S, 58.0067°E)
Time: 09:41:12
(UTC+00:00)

Cosmos 1726 - Pass Details

Date: 22 January 2021
Orbit: 480 x 499 km, 82.5° (Epoch: 27 February)

Event Time Altitude Azimuth Distance (km) Brightness Sun altitude
Rises 00:32:41 0° 194° (SSW) 2,586 6.0 -7.5°
Reaches altitude 10° 00:34:51 10° 199° (SSW) 1,699 5.0 -7.1°
Maximum altitude 00:38:27 49° 274° (W) 644 2.3 -6.5°
Drops below altitude 10° 00:42:01 10° 349° (N) 1,682 4.4 -5.9°
Sets 00:44:09 0° 354° (N) 2,557 5.4 -5.5°
